FW8060 Weather Reports


Display with metric or nautical units.
time (UTC)temp
F
wind
direction
speed
MPH
gust
MPH
rain 1hr
in
rain 24hr
in
rain mn
in
humidity
%
barometer
mb
20260510144717 61 45 7.0 17.0 0.00 0.00 0.00 70 1011.9
20260510144356 61 30 5.0 16.0 0.00 0.00 0.00 71 1011.9
20260510142336 62 329 4.0 11.0 0.00 0.00 0.00 70 1012.2
20260510141335 62 340 4.0 11.0 0.00 0.00 0.00 68 1012.1
20260510140330 62 340 3.0 12.0 0.00 0.00 0.00 65 1012.3
20260510140154 64 27 4.0 15.0 0.00 0.00 0.00 60 1012.8
20260510135331 63 24 3.0 10.0 0.00 0.00 0.00 65 1012.4
20260510135027 64 18 5.0 12.0 0.00 0.00 0.00 63 1012.4
20260510134753 64 339 4.0 17.0 0.00 0.00 0.00 61 1012.4
20260510134717 65 44 4.0 14.0 0.00 0.00 0.00 60 1012.6
20260510134400 63 346 3.0 11.0 0.00 0.00 0.00 63 1012.4
20260510132621 64 45 5.0 15.0 0.00 0.00 0.00 62 1012.3
20260510125426 64 31 5.0 14.0 0.00 0.00 0.00 59 1012.7
20260510124657 64 0 5.0 12.0 0.00 0.00 0.00 60 1013.0
20260510124339 65 46 4.0 13.0 0.00 0.00 0.00 60 1012.8
20260510121323 65 24 5.0 17.0 0.00 0.00 0.00 57 1013.0
20260510120728 66 48 5.0 17.0 0.00 0.00 0.00 57 1013.2
20260510120336 65 24 5.0 14.0 0.00 0.00 0.00 58 1013.0
20260510114338 64 65 5.0 14.0 0.00 0.00 0.00 59 1013.3
20260510113329 65 21 4.0 13.0 0.00 0.00 0.00 57 1013.3
20260510112318 65 60 5.0 15.0 0.00 0.00 0.00 54 1013.6
20260510111331 64 5 7.0 16.0 0.00 0.00 0.00 53 1013.6
20260510110812 63 44 6.0 15.0 0.00 0.00 0.00 52 1013.6
20260510105320 64 62 6.0 18.0 0.00 0.00 0.00 50 1013.6
20260510104342 64 15 4.0 12.0 0.00 0.00 0.00 52 1013.6
20260510103329 63 28 5.0 16.0 0.00 0.00 0.00 51 1013.7
20260510102318 63 11 5.0 15.0 0.00 0.00 0.00 52 1013.9
20260510101829 62 346 5.0 12.0 0.00 0.00 0.00 51 1013.8
20260510100823 62 38 5.0 13.0 0.00 0.00 0.00 52 1013.9
20260510100347 62 27 5.0 15.0 0.00 0.00 0.00 52 1013.8
20260510094328 62 80 5.0 13.0 0.00 0.00 0.00 54 1014.1
20260510093314 61 336 5.0 11.0 0.00 0.00 0.00 53 1014.3
20260510092945 62 60 6.0 17.0 0.00 0.00 0.00 56 1014.6
20260510092331 62 24 5.0 12.0 0.00 0.00 0.00 53 1014.4
20260510091436 61 49 5.0 12.0 0.00 0.00 0.00 56 1014.5
20260510085311 61 26 5.0 15.0 0.00 0.00 0.00 58 1014.6
20260510084316 61 61 4.0 15.0 0.00 0.00 0.00 59 1014.5
20260510083311 60 42 5.0 14.0 0.00 0.00 0.00 62 1014.5
20260510082309 59 49 5.0 14.0 0.00 0.00 0.00 62 1014.6
20260510081732 59 22 4.0 10.0 0.00 0.00 0.00 65 1014.7
20260510081556 58 36 4.0 11.0 0.00 0.00 0.00 67 1014.8
20260510081326 60 38 4.0 13.0 0.00 0.00 0.00 63 1014.6
20260510074805 58 33 5.0 10.0 0.00 0.00 0.00 67 1014.9
20260510073306 58 40 4.0 14.0 0.00 0.00 0.00 69 1015.0
20260510072306 57 61 3.0 14.0 0.00 0.00 0.00 70 1015.1
20260510071304 57 42 4.0 11.0 0.00 0.00 0.00 71 1015.0
20260510070309 56 17 4.0 12.0 0.00 0.00 0.00 74 1015.0
20260510065652 51 32 1.0 4.0 0.00 0.00 0.00 87 1015.1
20260510065535 55 45 3.0 12.0 0.00 0.00 0.00 78 1015.1
20260510065323 56 57 3.0 10.0 0.00 0.00 0.00 76 1014.9
20260510063932 53 38 3.0 10.0 0.00 0.00 0.00 87 1015.0
20260510063328 54 32 3.0 10.0 0.00 0.00 0.00 80 1015.0
20260510062306 54 57 3.0 7.0 0.00 0.00 0.00 81 1015.0
20260510061427 53 54 3.0 10.0 0.00 0.00 0.00 83 1015.0
20260510060713 51 51 2.0 5.0 0.00 0.00 0.00 88 1015.1
20260510060527 51 48 2.0 4.0 0.00 0.00 0.00 88 1015.0
20260510060324 53 38 3.0 10.0 0.00 0.00 0.00 85 1015.0
20260510054306 52 40 2.0 7.0 0.00 0.00 0.00 88 1015.1
20260510050307 50 22 1.0 5.0 0.00 0.00 0.00 87 1015.1
20260510045306 50 32 2.0 4.0 0.00 0.00 0.00 87 1015.0
20260510044303 50 43 1.0 3.0 0.00 0.00 0.00 88 1015.1
20260510043303 50 43 1.0 4.0 0.00 0.00 0.00 88 1015.0
20260510042306 50 40 1.0 4.0 0.00 0.00 0.00 89 1015.1
20260510041312 50 41 1.0 5.0 0.00 0.00 0.00 89 1014.9
20260510040259 50 58 2.0 4.0 0.00 0.00 0.00 89 1014.8
20260510035306 50 58 1.0 3.0 0.00 0.00 0.00 89 1014.8
20260510034303 50 58 1.0 7.0 0.00 0.00 0.00 89 1015.0
20260510033301 50 333 1.0 4.0 0.00 0.00 0.00 89 1014.9
20260510032305 51 327 1.0 5.0 0.00 0.00 0.00 89 1015.1
20260510031257 51 302 1.0 3.0 0.00 0.00 0.00 89 1015.0
20260510030348 51 35 1.0 2.0 0.00 0.00 0.00 88 1015.0
20260510025255 51 35 1.0 3.0 0.00 0.00 0.00 88 1015.1
20260510024257 51 53 1.0 3.0 0.00 0.00 0.00 88 1015.1
20260510023253 51 45 1.0 3.0 0.00 0.00 0.00 88 1015.2
20260510023222 51 40 1.0 3.0 0.00 0.00 0.00 88 1015.1
20260510021254 51 58 1.0 4.0 0.00 0.00 0.00 87 1015.1
20260510020254 51 58 1.0 2.0 0.00 0.00 0.00 87 1015.3
20260510015255 51 58 1.0 3.0 0.00 0.00 0.00 87 1015.1
20260510014413 51 44 1.0 2.0 0.00 0.00 0.00 86 1015.2
20260510014309 51 42 1.0 3.0 0.00 0.00 0.00 87 1015.2
20260510012257 51 44 1.0 2.0 0.00 0.00 0.00 86 1015.4
20260510011253 51 44 1.0 3.0 0.00 0.00 0.00 85 1015.4
20260510010248 51 55 1.0 3.0 0.00 0.00 0.00 85 1015.5
20260510005249 51 0 1.0 2.0 0.00 0.00 0.00 85 1015.5
20260510004248 51 0 1.0 3.0 0.00 0.00 0.00 84 1015.6
20260510003251 52 41 1.0 3.0 0.00 0.00 0.00 83 1015.7
20260510002246 52 41 1.0 2.0 0.00 0.00 0.00 82 1015.8
20260510001249 52 41 1.0 2.0 0.00 0.00 0.00 82 1015.9
20260510000248 52 41 1.0 3.0 0.00 0.00 0.00 82 1015.9
20260509235245 52 41 1.0 4.0 0.00 0.00 0.00 81 1015.9
20260509234244 52 41 1.0 3.0 0.00 0.00 0.00 80 1016.0
20260509233245 52 41 1.0 3.0 0.00 0.00 0.00 80 1016.1
20260509232246 52 41 1.0 3.0 0.00 0.00 0.00 79 1016.1
20260509231242 52 41 1.0 3.0 0.00 0.00 0.00 78 1016.1
20260509230241 53 41 1.0 2.0 0.00 0.00 0.00 77 1016.2
20260509225241 53 41 1.0 3.0 0.00 0.00 0.00 77 1016.2
20260509224243 53 41 1.0 3.0 0.00 0.00 0.00 76 1016.3
20260509223242 53 42 1.0 2.0 0.00 0.00 0.00 76 1016.3
20260509222240 53 341 1.0 2.0 0.00 0.00 0.00 75 1016.3
20260509221735 53 30 1.0 2.0 0.00 0.00 0.00 74 1016.2
20260509220240 53 34 1.0 4.0 0.00 0.00 0.00 73 1016.3
20260509215240 54 21 1.0 3.0 0.00 0.00 0.00 71 1016.2
20260509214242 54 19 1.0 2.0 0.00 0.00 0.00 69 1016.3
20260509213241 55 33 1.0 3.0 0.00 0.00 0.00 68 1016.3
20260509212324 55 350 1.0 3.0 0.00 0.00 0.00 68 1016.3
20260509212245 55 45 1.0 4.0 0.00 0.00 0.00 67 1016.3
20260509210235 56 0 1.0 2.0 0.00 0.00 0.00 68 1016.2
20260509205316 56 332 1.0 3.0 0.00 0.00 0.00 68 1016.1
20260509204348 57 54 1.0 3.0 0.00 0.00 0.00 68 1016.1
20260509204246 56 37 2.0 4.0 0.00 0.00 0.00 68 1016.1
20260509202234 57 54 1.0 3.0 0.00 0.00 0.00 68 1016.1
20260509201232 57 54 1.0 2.0 0.00 0.00 0.00 68 1016.1
20260509200232 57 54 1.0 4.0 0.00 0.00 0.00 68 1016.1
20260509200210 58 5 1.0 3.0 0.00 0.00 0.00 67 1016.0
20260509194233 58 28 1.0 5.0 0.00 0.00 0.00 66 1015.9
20260509193754 60 91 2.0 5.0 0.00 0.00 0.00 62 1015.8
20260509193520 59 338 1.0 4.0 0.00 0.00 0.00 64 1015.8
20260509193257 59 5 1.0 4.0 0.00 0.00 0.00 65 1015.9
20260509191245 60 22 2.0 5.0 0.00 0.00 0.00 64 1015.8
20260509185234 61 23 2.0 5.0 0.00 0.00 0.00 62 1015.9
20260509184228 62 37 2.0 10.0 0.00 0.00 0.00 61 1015.9
20260509183239 62 63 2.0 6.0 0.00 0.00 0.00 60 1015.8
20260509182234 63 53 2.0 9.0 0.00 0.00 0.00 59 1015.6
20260509181252 65 42 3.0 11.0 0.00 0.00 0.00 57 1015.5
20260509181232 64 53 3.0 9.0 0.00 0.00 0.00 58 1015.6
20260509180414 64 30 3.0 7.0 0.00 0.00 0.00 57 1015.6
20260509175322 65 17 2.0 6.0 0.00 0.00 0.00 57 1015.6
20260509173237 66 9 3.0 12.0 0.00 0.00 0.00 56 1015.4
20260509172440 67 338 3.0 9.0 0.00 0.00 0.00 55 1015.3
20260509172241 66 324 5.0 15.0 0.00 0.00 0.00 55 1015.4
20260509170758 68 35 4.0 9.0 0.00 0.00 0.00 53 1015.3
20260509170326 68 69 3.0 13.0 0.00 0.00 0.00 54 1015.2
20260509164236 68 315 6.0 15.0 0.00 0.00 0.00 52 1015.4
20260509163231 69 9 5.0 12.0 0.00 0.00 0.00 51 1015.3
20260509162417 71 79 3.0 8.0 0.00 0.00 0.00 47 1015.3
20260509162238 70 49 3.0 7.0 0.00 0.00 0.00 49 1015.3
20260509160937 72 40 3.0 8.0 0.00 0.00 0.00 46 1015.3
20260509160300 71 44 3.0 10.0 0.00 0.00 0.00 47 1015.4
20260509155353 72 72 2.0 5.0 0.00 0.00 0.00 46 1015.4
20260509155226 71 46 2.0 8.0 0.00 0.00 0.00 48 1015.4
20260509152222 70 34 3.0 11.0 0.00 0.00 0.00 48 1015.3
20260509151554 71 31 3.0 11.0 0.00 0.00 0.00 44 1015.1
20260509151246 70 0 2.0 7.0 0.00 0.00 0.00 47 1015.3
20260509150245 71 15 3.0 6.0 0.00 0.00 0.00 47 1015.3